Tracking 35275 objects as of 8-Sep-2026
HD Live streaming from Space Station
objects crossing your sky now

SL-12 DEB


SL-12 DEB is no longer on orbit


NORAD ID: 29327
Int'l Code: 1989-039AJ
Launch date: May 31, 1989
Source: Commonwealth of Independent States (former USSR) (CIS)
Launch site: TYURATAM MISSILE AND SPACE COMPLEX (TTMTR)
Decay date: 2006-11-04

Note: This is SATELLITE DEBRIS
Your satellite tracking list
Your tracking list is empty




NASA's NSSDC Master Catalog

Two Line Element Set (TLE):
1 29327U 89039AJ  06278.47515950  .00017718  00000-0  70445-1 0  9996
2 29327 065.4562 248.3490 5583456 066.8548 341.3478 04.39361477  3003
Source of the keplerian elements: AFSPC